Location: Bu�n Treun
(12.1333°N, 108.3167°E)
Time: 13:23:23
(UTC+00:00)

Cosmos 1655 Rocket - Pass Details

Date: 13 July 2020
Orbit: 970 x 1006 km, 83.0° (Epoch: 07 August)

Event Time Altitude Azimuth Distance (km) Brightness Sun altitude
Rises 22:04:27 0° 0° (N) 3,700 7.4 -6.4°
Reaches altitude 10° 22:07:00 10° 3° (N) 2,746 6.7 -5.9°
Maximum altitude 22:13:16 69° 86° (E) 1,044 4.5 -4.5°
Drops below altitude 10° 22:19:28 10° 169° (S) 2,721 6.2 -3.1°
Sets 22:21:58 0° 171° (S) 3,664 6.9 -2.5°
